Find Starlink 30605

NORAD ID: 58101 Int'l Des: 2023-161 Owner: SPXS Country: US Constellation: starlink operational
LEOCIRCULAR

当前视图

正在加载3D地球...

About Starlink 30605

Starlink 30605 (NORAD 58101) is a starlink constellation satellite (v2 mini) launched Oct 21, 2023 by SPXS of US. It operates in LEO, CIRCULAR orbit with a mass of 730.00 kg.

即将过境

Passes for default location (London). Set your location on the main map for personalized predictions.

高度历史

Loading altitude history...

两行轨道根数

1 58101U 23161E 26236.64632555 .00001608 00000-0 58749-4 0 9995
2 58101 53.1599 103.4684 0001321 84.1003 276.0150 15.34386299160163
Epoch: Aug 24, 2026 • Age: 20 hours

当前状态

高度 463.9 km
远地点 / 近地点 N/A
速度 7.64 km/s
星下点 -1.69°S, 52.89°W
发射日期 Oct 21, 2023
运行时间 2.8 years
类型 internet

技术详情

分类 Payload
质量 730.00 kg
干质量 700.00 kg
总质量 730.00 kg
长度 0.30 m
直径 4.10 m
跨度 29.00 m
形状 Box + pan
制造商 SPXS
平台类型 Starlink V2M
阶段状态 In Orbit
所有者/国家 SPXS/US

Most Searched